[[{"header":{"parameterUnit":"m.s-1","parameterCategory":1,"la1":30.2991,"la2":30.254,"lo1":-89.0895,"lo2":-89.0444,"dy":0.0017,"dx":0.0017,"nx":28,"ny":28,"refTime":"2024-03-19T21:00:00:Z","depth":0,"parameterNumber":2,"parameterNumberName":"U-component_of_WINDS"},"data":[0,0,0,0,0,0,0,0,0,0,0,0,0,0,0,0,0,0,0,0,0,0,0,0,0,0,0,0,0,0,0,0,0,0,0,0,0,0,0,0,0,0,0,0,0,0,0,0,0,0,0,0,0,0,0,0,0,0,0.5051,0.5051,0,0.5078,0.5078,0.5078,0.5107,0.5108,0.5108,0.5108,0.5134,0.5135,0.5135,0,0,0,0,0,0,0,0,0,0,0,0,0,0.5022,0.5023,0.5051,0.5051,0.5051,0.5078,0.5078,0.5078,0.5107,0.5108,0.5108,0.5109,0.5134,0.5135,0.5135,0,0,0,0,0,0,0,0,0,0,0,0,0,0.5041,0.5023,0.5051,0.5069,0.5071,0.5078,0.5078,0.5078,0.5107,0.5108,0.5108,0.5109,0.5134,0.5135,0.5135,0.5125,0,0,0.5136,0.5137,0,0,0,0,0,0,0,0,0.5039,0.5042,0.5066,0.5068,0.507,0.509,0.5078,0.5094,0.5107,0.5093,0.5108,0.5109,0.5119,0.5121,0.5124,0.5127,0.5128,0.5136,0.5137,0.5137,0.5137,0,0,0,0,0,0,0,0.5038,0.5041,0.5061,0.5066,0.5069,0.5075,0.5079,0.5081,0.5102,0.5094,0.5097,0.51,0.512,0.5124,0.5125,0.5128,0.5136,0.5137,0.5137,0.5137,0.5124,0.5123,0,0,0,0,0,0,0.5034,0.5039,0.506,0.5062,0.5056,0.5075,0.5079,0.5083,0.5102,0.5106,0.5099,0.5101,0.5123,0.5125,0.5126,0.5116,0.5137,0.5137,0.5138,0.5125,0.5124,0.5123,0,0,0,0,0,0,0.5034,0.5036,0.5059,0.5051,0.5055,0.5075,0.5079,0.5083,0.5087,0.5106,0.5109,0.5099,0.5123,0.5126,0.5126,0.5118,0.5138,0.5138,0.5125,0.5124,0.5124,0.5096,0,0,0,0,0,0,0.5033,0.5036,0.5032,0.5051,0.5055,0.5059,0.5079,0.5083,0.5088,0.509,0.5107,0.511,0.5124,0.5125,0.5126,0.5119,0.5138,0.5126,0.5125,0.5124,0.5098,0.5095,0.5092,0,0,0,0,0,0.5032,0.5023,0.5032,0.5035,0.5052,0.5058,0.506,0.5077,0.5087,0.5084,0.5096,0.5109,0.5118,0.5124,0.5126,0.5119,0.5127,0.5125,0.5124,0.51,0.5095,0.5092,0,0,0,0,0,0,0.5003,0.5026,0.5036,0.5034,0.5044,0.5063,0.506,0.5072,0.5079,0.5081,0.5101,0.5105,0.5102,0.5111,0.5117,0.5111,0.5124,0.5123,0.5105,0.5101,0.5098,0.5096,0.5139,0,0,0,0,0,0.4996,0.5,0.502,0.5016,0.502,0.5039,0.5042,0.5054,0.5065,0.507,0.5082,0.5092,0.5097,0.51,0.5105,0.5099,0.5103,0.5095,0.5092,0.5089,0.5088,0.5086,0.5082,0.5119,0.5119,0.5119,0,0,0.4982,0.4995,0.4996,0.501,0.5019,0.5022,0.5042,0.5045,0.5047,0.507,0.5071,0.508,0.5092,0.5089,0.5089,0.5096,0.5079,0.5087,0.5085,0.5085,0.5084,0.508,0.5077,0.5118,0.5118,0.5118,0,0,0.4959,0.4969,0.4967,0.4976,0.499,0.5003,0.5002,0.5019,0.5027,0.5028,0.5045,0.5048,0.5056,0.5064,0.507,0.5049,0.5062,0.505,0.5034,0.5031,0.5028,0.5026,0.5018,0.5016,0.5049,0.5049,0.5049,0,0.4939,0.4945,0.4964,0.4966,0.4971,0.4993,0.499,0.4998,0.5013,0.5016,0.5024,0.5035,0.5045,0.5044,0.5039,0.5042,0.5042,0.5049,0.5027,0.5025,0.5023,0.5016,0.5013,0.5048,0.5048,0.5048,0.5048,0,0.4921,0.4925,0.4921,0.4936,0.4941,0.494,0.4959,0.4961,0.4973,0.4984,0.4986,0.4998,0.5007,0.5007,0.5018,0.5008,0.5012,0.5024,0.5038,0.5018,0.5012,0.5009,0.5045,0.5046,0.5046,0.5047,0,0,0.488,0.4905,0.4903,0.491,0.4928,0.4931,0.4931,0.494,0.4942,0.4951,0.4952,0.4958,0.4969,0.4975,0.4987,0.4985,0.4968,0.4996,0.4997,0.4991,0.4957,0.4949,0.4945,0.4976,0.4976,0.4976,0.4956,0,0.4859,0.4862,0.4879,0.4876,0.488,0.4901,0.4901,0.4911,0.4922,0.4926,0.4938,0.4942,0.4956,0.4959,0.4958,0.497,0.4961,0.4972,0.4977,0.4977,0.4973,0.4942,0.4933,0.4914,0.4954,0.4953,0.4953,0,0.4836,0.4844,0.4842,0.486,0.4862,0.4862,0.4872,0.4876,0.4887,0.4895,0.4902,0.4916,0.4917,0.4931,0.4932,0.4939,0.4942,0.4948,0.4948,0.4949,0.4964,0.4942,0.4908,0.4905,0.495,0.495,0.495,0,0.4806,0.4817,0.4817,0.4823,0.4843,0.4842,0.4851,0.4863,0.4868,0.4876,0.4879,0.4887,0.4891,0.4897,0.4912,0.4921,0.4912,0.4927,0.4918,0.4918,0.4915,0.4915,0.4881,0.4918,0.4918,0.4918,0.4918,0,0.4781,0.4779,0.4804,0.4804,0.4803,0.4822,0.4819,0.483,0.4841,0.4843,0.4861,0.4862,0.4883,0.4887,0.4899,0.4898,0.49,0.4906,0.4909,0.4904,0.4904,0.4906,0.4908,0.4917,0.4917,0.4917,0.4917,0,0.4747,0.4764,0.4766,0.4785,0.479,0.4788,0.4804,0.4804,0.4816,0.4819,0.4821,0.4839,0.4844,0.4861,0.487,0.4878,0.4874,0.488,0.487,0.4872,0.4862,0.4863,0.4829,0.4825,0.4864,0.4863,0.4863,0,0.473,0.4729,0.4748,0.4752,0.4759,0.4764,0.4769,0.4788,0.4792,0.4805,0.4804,0.4811,0.4818,0.4825,0.4839,0.4846,0.4852,0.484,0.4853,0.4849,0.4852,0.4852,0.4852,0.4837,0.4836,0.4836,0.4836,0,0.4698,0.4707,0.4713,0.4723,0.4728,0.4736,0.4745,0.4746,0.4768,0.4771,0.4777,0.4782,0.4792,0.4798,0.4808,0.4816,0.4829,0.4831,0.483,0.4825,0.4819,0.4822,0.4861,0.4832,0.4832,0.4833,0.4833,0.4833,0.4672,0.4672,0.4686,0.4693,0.4702,0.471,0.4711,0.4724,0.4729,0.4739,0.475,0.4755,0.4766,0.4781,0.4788,0.4791,0.4798,0.4796,0.4795,0.4794,0.4792,0.4818,0.4793,0.4793,0.4793,0.4793,0.4793,0,0.4641,0.4651,0.4657,0.467,0.4675,0.4687,0.4698,0.4701,0.4705,0.4716,0.4722,0.4729,0.4735,0.475,0.4757,0.4757,0.4763,0.4759,0.4759,0.476,0.4785,0.4786,0.4753,0.4753,0.4753,0.4753,0.4753,0.4753,0.4626,0.4626,0.4637,0.4642,0.4652,0.4657,0.4662,0.4669,0.4678,0.4685,0.469,0.47,0.4712,0.4721,0.4727,0.4731,0.4733,0.4726,0.4732,0.4755,0.4758,0.4762,0.4763,0.4726,0.4726,0.4707,0.4706,0.4706]},{"header":{"parameterUnit":"m.s-1","parameterCategory":1,"la1":30.2991,"la2":30.254,"lo1":-89.0895,"lo2":-89.0444,"dy":0.0017,"dx":0.0017,"nx":28,"ny":28,"refTime":"2024-03-19T21:00:00:Z","depth":0,"parameterNumber":3,"parameterNumberName":"V-component_of_WINDS"},"data":[0,0,0,0,0,0,0,0,0,0,0,0,0,0,0,0,0,0,0,0,0,0,0,0,0,0,0,0,0,0,0,0,0,0,0,0,0,0,0,0,0,0,0,0,0,0,0,0,0,0,0,0,0,0,0,0,0,0,-1.0623,-1.0623,0,-1.066,-1.066,-1.066,-1.0649,-1.0649,-1.0648,-1.0647,-1.0685,-1.0686,-1.0688,0,0,0,0,0,0,0,0,0,0,0,0,0,-1.0542,-1.0544,-1.0623,-1.0623,-1.0623,-1.0659,-1.066,-1.0661,-1.065,-1.0649,-1.0648,-1.0647,-1.0684,-1.0686,-1.0688,0,0,0,0,0,0,0,0,0,0,0,0,0,-1.0578,-1.0544,-1.0622,-1.0622,-1.0623,-1.0659,-1.066,-1.0661,-1.065,-1.0649,-1.0648,-1.0646,-1.0683,-1.0686,-1.0688,-1.0727,0,0,-1.0696,-1.0697,0,0,0,0,0,0,0,0,-1.0576,-1.0581,-1.0622,-1.0622,-1.0623,-1.0649,-1.0645,-1.0683,-1.065,-1.064,-1.0647,-1.0646,-1.0674,-1.0677,-1.0686,-1.0729,-1.073,-1.0696,-1.0698,-1.0699,-1.07,0,0,0,0,0,0,0,-1.0573,-1.0579,-1.0637,-1.0623,-1.0623,-1.062,-1.0624,-1.0652,-1.0662,-1.064,-1.064,-1.0644,-1.0674,-1.0684,-1.0687,-1.0731,-1.0696,-1.0699,-1.07,-1.0701,-1.0808,-1.0809,0,0,0,0,0,0,-1.0571,-1.0577,-1.0636,-1.0638,-1.0596,-1.0623,-1.0627,-1.0642,-1.0662,-1.0664,-1.0645,-1.0644,-1.068,-1.0684,-1.0688,-1.0735,-1.0699,-1.0701,-1.0703,-1.0806,-1.0808,-1.0809,0,0,0,0,0,0,-1.0569,-1.0576,-1.0634,-1.0608,-1.0615,-1.0625,-1.0642,-1.0643,-1.0653,-1.0666,-1.0667,-1.0654,-1.0679,-1.0685,-1.0718,-1.0737,-1.0703,-1.0705,-1.0805,-1.0807,-1.0809,-1.083,0,0,0,0,0,0,-1.0567,-1.0575,-1.059,-1.0608,-1.0616,-1.0663,-1.0643,-1.0645,-1.0658,-1.0656,-1.0674,-1.0676,-1.0679,-1.0714,-1.072,-1.0739,-1.0707,-1.0803,-1.0806,-1.0808,-1.0827,-1.0832,-1.0836,0,0,0,0,0,-1.0564,-1.0595,-1.0591,-1.0598,-1.0635,-1.0665,-1.0669,-1.0672,-1.0659,-1.0674,-1.0682,-1.0676,-1.0733,-1.0717,-1.0724,-1.0745,-1.0802,-1.0805,-1.0808,-1.0825,-1.0831,-1.0836,0,0,0,0,0,0,-1.0579,-1.0597,-1.0593,-1.0631,-1.0646,-1.0663,-1.0682,-1.0678,-1.0697,-1.0694,-1.0696,-1.0701,-1.0734,-1.0743,-1.0725,-1.0783,-1.0766,-1.077,-1.0777,-1.0783,-1.0787,-1.0784,-1.0709,0,0,0,0,0,-1.0586,-1.0609,-1.0623,-1.0655,-1.0663,-1.0671,-1.0684,-1.0684,-1.07,-1.0707,-1.0717,-1.0733,-1.0755,-1.0769,-1.079,-1.0828,-1.0832,-1.0846,-1.085,-1.0854,-1.0858,-1.0879,-1.0886,-1.0819,-1.0819,-1.0819,0,0,-1.0602,-1.0615,-1.0629,-1.0658,-1.067,-1.0694,-1.0677,-1.0702,-1.0719,-1.0711,-1.0743,-1.0751,-1.0768,-1.0805,-1.0821,-1.0813,-1.0877,-1.0858,-1.086,-1.0862,-1.0883,-1.0889,-1.0895,-1.0821,-1.082,-1.082,0,0,-1.0643,-1.0655,-1.0683,-1.0696,-1.0714,-1.0719,-1.0726,-1.0743,-1.0749,-1.0781,-1.0775,-1.0795,-1.0833,-1.0846,-1.0857,-1.0903,-1.0898,-1.091,-1.0933,-1.0954,-1.0959,-1.0964,-1.0981,-1.0987,-1.0914,-1.0914,-1.0914,0,-1.0661,-1.0696,-1.0698,-1.0724,-1.0737,-1.0731,-1.0759,-1.0771,-1.0795,-1.0804,-1.0794,-1.0841,-1.0853,-1.0892,-1.0903,-1.0913,-1.0921,-1.0908,-1.0958,-1.0963,-1.0968,-1.0984,-1.099,-1.0915,-1.0915,-1.0915,-1.0915,0,-1.0716,-1.0741,-1.0761,-1.0785,-1.08,-1.0827,-1.0833,-1.0849,-1.0848,-1.0854,-1.0887,-1.0901,-1.0924,-1.0933,-1.0933,-1.0973,-1.0967,-1.0958,-1.094,-1.0975,-1.0991,-1.0997,-1.0917,-1.0917,-1.0916,-1.0916,0,0,-1.0768,-1.0793,-1.0801,-1.0812,-1.0832,-1.0851,-1.0877,-1.09,-1.0914,-1.093,-1.0953,-1.0985,-1.0977,-1.099,-1.099,-1.1009,-1.1045,-1.0997,-1.0998,-1.1006,-1.1091,-1.1098,-1.1105,-1.1041,-1.1043,-1.1044,-1.1089,0,-1.0811,-1.0858,-1.0861,-1.0904,-1.0927,-1.0921,-1.0944,-1.0959,-1.0966,-1.0986,-1.0993,-1.1016,-1.1003,-1.1011,-1.1029,-1.1037,-1.1062,-1.1034,-1.1063,-1.1064,-1.1059,-1.1113,-1.112,-1.1163,-1.1095,-1.1096,-1.1097,0,-1.0868,-1.0887,-1.0932,-1.095,-1.0959,-1.098,-1.1002,-1.1021,-1.1038,-1.1041,-1.1056,-1.1054,-1.1081,-1.1063,-1.1101,-1.1081,-1.1093,-1.1099,-1.1101,-1.1104,-1.1083,-1.1118,-1.1176,-1.1183,-1.1106,-1.1106,-1.1105,0,-1.0902,-1.0939,-1.0971,-1.098,-1.1001,-1.1016,-1.1025,-1.1041,-1.1055,-1.1074,-1.1083,-1.1104,-1.1116,-1.1133,-1.1137,-1.1123,-1.1175,-1.1156,-1.1179,-1.1179,-1.119,-1.119,-1.1252,-1.1197,-1.1197,-1.1197,-1.1197,0,-1.095,-1.0978,-1.0986,-1.1006,-1.1037,-1.104,-1.1071,-1.1079,-1.1093,-1.1114,-1.111,-1.113,-1.1134,-1.1155,-1.1158,-1.1189,-1.1195,-1.1198,-1.1199,-1.1199,-1.1199,-1.1207,-1.1205,-1.1199,-1.1199,-1.1198,-1.1198,0,-1.0993,-1.0999,-1.1034,-1.1051,-1.1056,-1.1078,-1.1093,-1.1112,-1.1118,-1.1145,-1.1151,-1.1161,-1.1185,-1.1191,-1.122,-1.1222,-1.1259,-1.1256,-1.1253,-1.1253,-1.1276,-1.1274,-1.1346,-1.1356,-1.1294,-1.1295,-1.1295,0,-1.1023,-1.1045,-1.1064,-1.1078,-1.1089,-1.1111,-1.1126,-1.1129,-1.1144,-1.1165,-1.1182,-1.1205,-1.1225,-1.1264,-1.1273,-1.1295,-1.1294,-1.1318,-1.1297,-1.1297,-1.1295,-1.1294,-1.1296,-1.1322,-1.1322,-1.1323,-1.1323,0,-1.1077,-1.1079,-1.11,-1.1122,-1.114,-1.1157,-1.1174,-1.1186,-1.1192,-1.1209,-1.1234,-1.1249,-1.1278,-1.1302,-1.1325,-1.1334,-1.133,-1.133,-1.1336,-1.1337,-1.1334,-1.1336,-1.1265,-1.1328,-1.1328,-1.1327,-1.1327,-1.1327,-1.1115,-1.1134,-1.1151,-1.1174,-1.1188,-1.1203,-1.1222,-1.1231,-1.1252,-1.1276,-1.1277,-1.1305,-1.1321,-1.135,-1.1361,-1.1383,-1.1375,-1.1384,-1.1387,-1.1389,-1.1392,-1.1331,-1.1387,-1.1386,-1.1386,-1.1386,-1.1386,0,-1.1169,-1.118,-1.1201,-1.1225,-1.1244,-1.1238,-1.1256,-1.1272,-1.1297,-1.1312,-1.1332,-1.1361,-1.1384,-1.1395,-1.1418,-1.1433,-1.1432,-1.1439,-1.1438,-1.1441,-1.1397,-1.1389,-1.144,-1.144,-1.144,-1.144,-1.144,-1.144,-1.1199,-1.1231,-1.1236,-1.1274,-1.1285,-1.1312,-1.1323,-1.1337,-1.135,-1.1383,-1.1402,-1.1409,-1.1423,-1.1448,-1.1469,-1.1471,-1.148,-1.1489,-1.149,-1.1449,-1.1444,-1.1438,-1.1431,-1.149,-1.149,-1.1533,-1.1533,-1.1534]}]]